EWG5018 BKPR-LOWW

Flight info

Callsign EWG5018
Flight time 1h 18m
Altitude 36000
Route KUKAD1D KUKAD DCT RETRA DCT GACMO DCT AGLIB DCT OBUTI OBUTI2W
Aircraft A320/M-SDE3FGHIRWY/LB1

Departure

Time 2026-04-21 11:20
Airport Priština Adem Jashari International Airport (BKPR)

Arrival

Time 2026-04-21 12:38
Airport Vienna International Airport (LOWW)
Time Latitude Longitude Altitude Speed Heading
2026-04-21 11:05 42.57472 21.03147 1787 ft 0 kts 265°
2026-04-21 11:10 42.57473 21.03158 1787 ft 4 kts 263°
2026-04-21 11:11 42.57478 21.03193 1787 ft 4 kts 243°
2026-04-21 11:11 42.57494 21.03219 1785 ft 4 kts 196°
2026-04-21 11:11 42.57504 21.03222 1787 ft 0 kts 175°
2026-04-21 11:13 42.57492 21.03223 1785 ft 4 kts 175°
2026-04-21 11:14 42.57471 21.03226 1785 ft 4 kts 175°
2026-04-21 11:14 42.57419 21.03232 1787 ft 10 kts 175°
2026-04-21 11:14 42.57360 21.03239 1787 ft 6 kts 175°
2026-04-21 11:14 42.57331 21.03251 1786 ft 3 kts 144°
2026-04-21 11:15 42.57322 21.03313 1787 ft 6 kts 104°
2026-04-21 11:15 42.57295 21.03343 1787 ft 8 kts 166°
2026-04-21 11:15 42.57176 21.03356 1786 ft 26 kts 175°
2026-04-21 11:15 42.56993 21.03375 1786 ft 25 kts 176°
2026-04-21 11:16 42.56826 21.03391 1782 ft 24 kts 175°
2026-04-21 11:16 42.56671 21.03407 1782 ft 20 kts 176°
2026-04-21 11:16 42.56538 21.03420 1782 ft 18 kts 176°
2026-04-21 11:16 42.56419 21.03431 1784 ft 16 kts 176°
2026-04-21 11:17 42.56317 21.03441 1786 ft 17 kts 176°
2026-04-21 11:17 42.56179 21.03456 1791 ft 19 kts 175°
2026-04-21 11:17 42.56056 21.03469 1794 ft 16 kts 175°
2026-04-21 11:17 42.55959 21.03480 1792 ft 12 kts 175°
2026-04-21 11:18 42.55884 21.03487 1796 ft 9 kts 176°
2026-04-21 11:18 42.55818 21.03506 1798 ft 12 kts 147°
2026-04-21 11:18 42.55806 21.03599 1799 ft 10 kts 86°
2026-04-21 11:18 42.55810 21.03680 1799 ft 9 kts 85°
2026-04-21 11:19 42.55865 21.03733 1795 ft 12 kts 357°
2026-04-21 11:19 42.55986 21.03722 1795 ft 38 kts 355°
2026-04-21 11:19 42.56498 21.03671 1782 ft 107 kts 355°
2026-04-21 11:19 42.57428 21.03579 1790 ft 158 kts 356°
2026-04-21 11:20 42.58546 21.03453 2361 ft 159 kts 355°
2026-04-21 11:20 42.59643 21.03329 3124 ft 161 kts 353°
2026-04-21 11:20 42.60824 21.03204 3499 ft 181 kts 353°
2026-04-21 11:20 42.62165 21.03065 3827 ft 204 kts 353°
2026-04-21 11:21 42.63626 21.02716 4225 ft 221 kts 332°
2026-04-21 11:21 42.64837 21.01350 4711 ft 237 kts 308°
2026-04-21 11:21 42.65810 20.99524 5597 ft 240 kts 302°
2026-04-21 11:21 42.66713 20.97605 6528 ft 242 kts 301°
2026-04-21 11:22 42.67628 20.95668 7367 ft 244 kts 301°
2026-04-21 11:22 42.68564 20.93720 8215 ft 247 kts 298°
2026-04-21 11:22 42.69041 20.91491 9013 ft 248 kts 269°
2026-04-21 11:22 42.68691 20.89173 9635 ft 261 kts 253°
2026-04-21 11:23 42.68405 20.86696 10147 ft 272 kts 275°
2026-04-21 11:23 42.68777 20.84132 10516 ft 293 kts 286°
2026-04-21 11:23 42.69478 20.81390 10759 ft 317 kts 290°
2026-04-21 11:23 42.70296 20.78509 11085 ft 334 kts 290°
2026-04-21 11:24 42.71114 20.75514 11742 ft 339 kts 289°
2026-04-21 11:24 42.71875 20.72464 12460 ft 342 kts 288°
2026-04-21 11:24 42.72570 20.69396 13186 ft 344 kts 286°
2026-04-21 11:24 42.73232 20.66253 13899 ft 347 kts 285°
2026-04-21 11:25 42.73876 20.63077 14533 ft 350 kts 285°
2026-04-21 11:25 42.74518 20.59870 15187 ft 352 kts 285°
2026-04-21 11:25 42.75164 20.56648 15856 ft 354 kts 285°
2026-04-21 11:25 42.75818 20.53392 16507 ft 356 kts 285°
2026-04-21 11:26 42.76478 20.50129 17176 ft 358 kts 285°
2026-04-21 11:26 42.76920 20.47956 17637 ft 360 kts 285°
2026-04-21 11:26 42.77593 20.44662 18333 ft 362 kts 285°
2026-04-21 11:26 42.78491 20.40264 19062 ft 366 kts 285°
2026-04-21 11:27 42.79172 20.36914 19614 ft 367 kts 285°
2026-04-21 11:27 42.79624 20.34686 19985 ft 368 kts 285°
2026-04-21 11:27 42.80306 20.31317 20536 ft 370 kts 285°
2026-04-21 11:27 42.80990 20.27925 21064 ft 372 kts 285°
2026-04-21 11:28 42.81677 20.24511 21591 ft 374 kts 285°
2026-04-21 11:28 42.82368 20.21084 22102 ft 376 kts 285°
2026-04-21 11:28 42.83063 20.17630 22592 ft 378 kts 285°
2026-04-21 11:28 42.83751 20.14197 23085 ft 380 kts 285°
2026-04-21 11:29 42.84448 20.10703 23550 ft 382 kts 285°
2026-04-21 11:29 42.85148 20.07196 23930 ft 384 kts 285°
2026-04-21 11:29 42.85852 20.03679 24299 ft 386 kts 285°
2026-04-21 11:29 42.86560 20.00147 24667 ft 388 kts 285°
2026-04-21 11:30 42.87273 19.96589 25036 ft 389 kts 285°
2026-04-21 11:30 42.87979 19.93056 25389 ft 391 kts 285°
2026-04-21 11:30 42.88690 19.89474 25724 ft 393 kts 285°
2026-04-21 11:30 42.89403 19.85868 26048 ft 394 kts 285°
2026-04-21 11:31 42.90115 19.82238 26356 ft 396 kts 285°
2026-04-21 11:31 42.90827 19.78602 26668 ft 398 kts 285°
2026-04-21 11:31 42.91545 19.74947 26953 ft 400 kts 285°
2026-04-21 11:31 42.92268 19.71267 27254 ft 401 kts 285°
2026-04-21 11:32 42.92992 19.67585 27554 ft 403 kts 285°
2026-04-21 11:32 42.93718 19.63888 27836 ft 405 kts 285°
2026-04-21 11:32 42.94438 19.60215 28124 ft 406 kts 285°
2026-04-21 11:32 42.95170 19.56464 28389 ft 408 kts 285°
2026-04-21 11:33 42.95902 19.52703 28642 ft 410 kts 285°
2026-04-21 11:33 42.96634 19.48936 28866 ft 411 kts 285°
2026-04-21 11:33 42.97360 19.45198 29148 ft 411 kts 285°
2026-04-21 11:33 42.98101 19.41376 29522 ft 410 kts 285°
2026-04-21 11:34 42.98819 19.37658 29909 ft 409 kts 285°
2026-04-21 11:34 42.99544 19.33903 30248 ft 408 kts 285°
2026-04-21 11:34 43.00267 19.30162 30547 ft 407 kts 285°
2026-04-21 11:34 43.00986 19.26419 30831 ft 406 kts 285°
2026-04-21 11:35 43.01702 19.22675 31129 ft 406 kts 285°
2026-04-21 11:35 43.02415 19.18942 31417 ft 405 kts 285°
2026-04-21 11:35 43.03116 19.15256 31703 ft 405 kts 285°
2026-04-21 11:35 43.03821 19.11533 31988 ft 404 kts 285°
2026-04-21 11:36 43.04526 19.07805 32278 ft 403 kts 285°
2026-04-21 11:36 43.05230 19.04095 32595 ft 403 kts 285°
2026-04-21 11:36 43.05933 19.00390 32891 ft 402 kts 286°
2026-04-21 11:36 43.06638 18.96684 33173 ft 401 kts 286°
2026-04-21 11:37 43.07337 18.92999 33458 ft 401 kts 286°
2026-04-21 11:37 43.08025 18.89360 33742 ft 400 kts 286°
2026-04-21 11:37 43.08721 18.85662 34030 ft 400 kts 286°
2026-04-21 11:37 43.09410 18.81982 34259 ft 400 kts 286°
2026-04-21 11:38 43.10100 18.78285 34469 ft 399 kts 285°
2026-04-21 11:38 43.10788 18.74596 34700 ft 399 kts 285°
2026-04-21 11:38 43.11466 18.70960 34924 ft 399 kts 285°
2026-04-21 11:38 43.12151 18.67278 35127 ft 399 kts 285°
2026-04-21 11:39 43.12841 18.63598 35354 ft 398 kts 288°
2026-04-21 11:39 43.13861 18.60091 35558 ft 397 kts 298°
2026-04-21 11:39 43.15380 18.56930 35741 ft 398 kts 308°
2026-04-21 11:39 43.17350 18.54230 35917 ft 402 kts 319°
2026-04-21 11:40 43.22257 18.50354 35961 ft 411 kts 329°
2026-04-21 11:40 43.27362 18.46891 35973 ft 411 kts 329°
2026-04-21 11:41 43.32492 18.43409 36006 ft 411 kts 329°
2026-04-21 11:41 43.37629 18.39892 35981 ft 412 kts 328°
2026-04-21 11:42 43.42734 18.36380 35987 ft 412 kts 328°
2026-04-21 11:42 43.47877 18.32847 35992 ft 413 kts 329°
2026-04-21 11:43 43.53015 18.29321 35976 ft 412 kts 329°
2026-04-21 11:43 43.58118 18.25801 36012 ft 412 kts 329°
2026-04-21 11:44 43.63249 18.22256 36023 ft 412 kts 329°
2026-04-21 11:44 43.68387 18.18699 36027 ft 411 kts 329°
2026-04-21 11:45 43.73479 18.15167 36032 ft 411 kts 329°
2026-04-21 11:45 43.78601 18.11606 36035 ft 411 kts 329°
2026-04-21 11:46 43.83720 18.08045 36032 ft 411 kts 329°
2026-04-21 11:46 43.88805 18.04501 36027 ft 412 kts 329°
2026-04-21 11:47 43.93923 18.00907 36028 ft 411 kts 329°
2026-04-21 11:47 43.99035 17.97325 36026 ft 412 kts 329°
2026-04-21 11:48 44.04164 17.93732 36029 ft 412 kts 329°
2026-04-21 11:48 44.09281 17.90149 36033 ft 412 kts 329°
2026-04-21 11:49 44.14391 17.86553 36032 ft 411 kts 329°
2026-04-21 11:49 44.19471 17.82959 36034 ft 411 kts 329°
2026-04-21 11:50 44.24573 17.79352 36042 ft 411 kts 328°
2026-04-21 11:50 44.29669 17.75739 36041 ft 411 kts 328°
2026-04-21 11:51 44.34773 17.72113 36038 ft 411 kts 328°
2026-04-21 11:51 44.39855 17.68501 36036 ft 411 kts 328°
2026-04-21 11:52 44.44954 17.64862 36040 ft 411 kts 328°
2026-04-21 11:52 44.50057 17.61213 36045 ft 411 kts 328°
2026-04-21 11:53 44.55128 17.57585 36048 ft 411 kts 328°
2026-04-21 11:53 44.60236 17.53934 36049 ft 411 kts 328°
2026-04-21 11:54 44.65339 17.50267 36057 ft 411 kts 328°
2026-04-21 11:54 44.70408 17.46613 36062 ft 411 kts 328°
2026-04-21 11:55 44.75506 17.42933 36067 ft 411 kts 328°
2026-04-21 11:55 44.80606 17.39247 36077 ft 411 kts 328°
2026-04-21 11:56 44.85706 17.35559 36076 ft 411 kts 328°
2026-04-21 11:56 44.90765 17.31885 36084 ft 412 kts 328°
2026-04-21 11:57 44.95860 17.28178 36081 ft 411 kts 328°
2026-04-21 11:57 45.00960 17.24468 36084 ft 411 kts 328°
2026-04-21 11:58 45.06021 17.20775 36083 ft 411 kts 327°
2026-04-21 11:58 45.11115 17.17044 36086 ft 411 kts 327°
2026-04-21 11:59 45.16220 17.13339 36080 ft 412 kts 328°
2026-04-21 11:59 45.21385 17.09789 36085 ft 413 kts 329°
2026-04-21 12:00 45.26569 17.06257 36087 ft 412 kts 329°
2026-04-21 12:00 45.31708 17.02712 36091 ft 412 kts 328°
2026-04-21 12:01 45.36863 16.99117 36090 ft 413 kts 328°
2026-04-21 12:01 45.42024 16.95512 36086 ft 413 kts 328°
2026-04-21 12:02 45.49737 16.90137 36084 ft 413 kts 328°
2026-04-21 12:03 45.54900 16.86519 36085 ft 414 kts 328°
2026-04-21 12:03 45.60081 16.82891 36084 ft 414 kts 328°
2026-04-21 12:04 45.65267 16.79246 36086 ft 415 kts 328°
2026-04-21 12:04 45.70457 16.75589 36086 ft 415 kts 328°
2026-04-21 12:05 45.75615 16.71949 36090 ft 415 kts 328°
2026-04-21 12:05 45.80807 16.68275 36081 ft 416 kts 328°
2026-04-21 12:06 45.86003 16.64581 36073 ft 416 kts 328°
2026-04-21 12:06 45.91202 16.60877 36073 ft 417 kts 328°
2026-04-21 12:06 45.93775 16.59045 35866 ft 417 kts 328°
2026-04-21 12:07 45.96374 16.57202 35630 ft 417 kts 328°
2026-04-21 12:07 45.98977 16.55358 35388 ft 416 kts 328°
2026-04-21 12:07 46.01563 16.53516 35148 ft 414 kts 328°
2026-04-21 12:07 46.04147 16.51668 34910 ft 414 kts 328°
2026-04-21 12:08 46.06724 16.49820 34684 ft 413 kts 328°
2026-04-21 12:08 46.09293 16.47974 34460 ft 412 kts 328°
2026-04-21 12:08 46.11858 16.46133 34223 ft 411 kts 328°
2026-04-21 12:08 46.14390 16.44318 33988 ft 410 kts 328°
2026-04-21 12:09 46.16950 16.42481 33719 ft 410 kts 328°
2026-04-21 12:09 46.19510 16.40636 33444 ft 411 kts 327°
2026-04-21 12:09 46.22075 16.38785 33178 ft 411 kts 328°
2026-04-21 12:09 46.24646 16.36933 32914 ft 412 kts 328°
2026-04-21 12:10 46.27180 16.35108 32657 ft 413 kts 328°
2026-04-21 12:10 46.29757 16.33249 32400 ft 413 kts 328°
2026-04-21 12:10 46.32335 16.31385 32144 ft 414 kts 328°
2026-04-21 12:10 46.34924 16.29511 31890 ft 415 kts 328°
2026-04-21 12:11 46.37601 16.27867 31634 ft 421 kts 335°
2026-04-21 12:11 46.40456 16.26776 31382 ft 428 kts 343°
2026-04-21 12:11 46.43409 16.26078 31147 ft 430 kts 344°
2026-04-21 12:11 46.46365 16.25385 30905 ft 431 kts 344°
2026-04-21 12:12 46.49331 16.24686 30659 ft 432 kts 344°
2026-04-21 12:12 46.52263 16.23995 30424 ft 432 kts 344°
2026-04-21 12:12 46.55238 16.23292 30186 ft 433 kts 344°
2026-04-21 12:12 46.58216 16.22585 29906 ft 433 kts 345°
2026-04-21 12:13 46.61198 16.21876 29619 ft 435 kts 345°
2026-04-21 12:13 46.64187 16.21168 29334 ft 436 kts 345°
2026-04-21 12:13 46.67195 16.20454 29055 ft 438 kts 345°
2026-04-21 12:13 46.70167 16.19743 28776 ft 439 kts 346°
2026-04-21 12:14 46.73193 16.19017 28500 ft 441 kts 346°
2026-04-21 12:14 46.76228 16.18290 28223 ft 443 kts 346°
2026-04-21 12:14 46.79273 16.17560 27951 ft 444 kts 347°
2026-04-21 12:14 46.82326 16.16828 27678 ft 444 kts 347°
2026-04-21 12:15 46.84346 16.16344 27499 ft 443 kts 347°
2026-04-21 12:15 46.88387 16.15375 27146 ft 442 kts 347°
2026-04-21 12:15 46.91420 16.14648 26885 ft 441 kts 347°
2026-04-21 12:15 46.93428 16.14167 26718 ft 440 kts 348°
2026-04-21 12:16 46.96450 16.13439 26453 ft 439 kts 348°
2026-04-21 12:16 46.99476 16.12708 26195 ft 438 kts 348°
2026-04-21 12:16 47.02480 16.11982 25729 ft 435 kts 348°
2026-04-21 12:16 47.05460 16.11263 24984 ft 431 kts 349°
2026-04-21 12:17 47.08379 16.10560 24277 ft 428 kts 349°
2026-04-21 12:17 47.11316 16.09851 23563 ft 425 kts 349°
2026-04-21 12:17 47.14233 16.09144 22811 ft 421 kts 349°
2026-04-21 12:17 47.17106 16.08443 22163 ft 415 kts 349°
2026-04-21 12:18 47.19951 16.07747 21525 ft 410 kts 349°
2026-04-21 12:18 47.22750 16.07062 20918 ft 406 kts 349°
2026-04-21 12:18 47.25490 16.06394 20334 ft 401 kts 349°
2026-04-21 12:18 47.28236 16.05725 19760 ft 396 kts 349°
2026-04-21 12:19 47.30946 16.05067 19218 ft 392 kts 349°
2026-04-21 12:19 47.33630 16.04425 18679 ft 389 kts 351°
2026-04-21 12:19 47.36319 16.04224 18171 ft 387 kts
2026-04-21 12:19 47.38984 16.04754 17758 ft 387 kts 11°
2026-04-21 12:20 47.41540 16.05896 17429 ft 388 kts 16°
2026-04-21 12:20 47.44092 16.07158 17073 ft 386 kts 16°
2026-04-21 12:20 47.46636 16.08419 16722 ft 384 kts 16°
2026-04-21 12:20 47.49168 16.09675 16375 ft 382 kts 16°
2026-04-21 12:21 47.51690 16.10925 16023 ft 380 kts 16°
2026-04-21 12:21 47.54190 16.12166 15679 ft 379 kts 16°
2026-04-21 12:21 47.56682 16.13403 15337 ft 377 kts 16°
2026-04-21 12:21 47.59164 16.14640 14994 ft 375 kts 16°
2026-04-21 12:22 47.61627 16.15872 14653 ft 373 kts 17°
2026-04-21 12:22 47.64079 16.17098 14314 ft 371 kts 17°
2026-04-21 12:22 47.66486 16.18303 13977 ft 369 kts 16°
2026-04-21 12:22 47.68948 16.19537 13617 ft 367 kts 17°
2026-04-21 12:23 47.71326 16.20727 13283 ft 364 kts 17°
2026-04-21 12:23 47.73719 16.21926 12953 ft 362 kts 18°
2026-04-21 12:23 47.76010 16.23487 12621 ft 361 kts 29°
2026-04-21 12:23 47.78041 16.25681 12289 ft 361 kts 40°
2026-04-21 12:24 47.79788 16.28358 11962 ft 359 kts 45°
2026-04-21 12:24 47.81481 16.31073 11630 ft 357 kts 45°
2026-04-21 12:24 47.83170 16.33770 11301 ft 354 kts 45°
2026-04-21 12:24 47.84837 16.36430 11011 ft 346 kts 45°
2026-04-21 12:25 47.86440 16.38990 10890 ft 331 kts 45°
2026-04-21 12:25 47.87810 16.41614 10762 ft 319 kts 56°
2026-04-21 12:25 47.88762 16.44541 10636 ft 308 kts 68°
2026-04-21 12:25 47.89347 16.47543 10508 ft 298 kts 75°
2026-04-21 12:26 47.89402 16.50579 10351 ft 293 kts 99°
2026-04-21 12:26 47.88563 16.53319 10194 ft 293 kts 126°
2026-04-21 12:26 47.86999 16.55271 9980 ft 298 kts 152°
2026-04-21 12:26 47.85018 16.56281 9483 ft 301 kts 163°
2026-04-21 12:27 47.83032 16.57098 9115 ft 298 kts 163°
2026-04-21 12:27 47.81014 16.57916 8797 ft 296 kts 164°
2026-04-21 12:27 47.79062 16.58707 8507 ft 293 kts 163°
2026-04-21 12:27 47.77151 16.59486 8217 ft 278 kts 163°
2026-04-21 12:28 47.75313 16.60241 8013 ft 273 kts 163°
2026-04-21 12:28 47.73488 16.60996 7883 ft 272 kts 163°
2026-04-21 12:28 47.71664 16.61754 7745 ft 271 kts 163°
2026-04-21 12:28 47.69858 16.62552 7568 ft 270 kts 156°
2026-04-21 12:29 47.68350 16.64118 7313 ft 263 kts 127°
2026-04-21 12:29 47.67516 16.66463 7052 ft 255 kts 98°
2026-04-21 12:29 47.67478 16.69023 6782 ft 246 kts 72°
2026-04-21 12:29 47.67945 16.71444 6514 ft 243 kts 65°
2026-04-21 12:30 47.68852 16.73438 6246 ft 234 kts 37°
2026-04-21 12:30 47.70273 16.74520 6002 ft 229 kts 10°
2026-04-21 12:30 47.71849 16.74489 5787 ft 229 kts 346°
2026-04-21 12:30 47.73386 16.73858 5566 ft 229 kts 345°
2026-04-21 12:31 47.74922 16.73221 5347 ft 228 kts 345°
2026-04-21 12:31 47.76487 16.72619 5126 ft 239 kts 348°
2026-04-21 12:31 47.78096 16.72031 4915 ft 234 kts 346°
2026-04-21 12:31 47.79628 16.71409 4665 ft 228 kts 345°
2026-04-21 12:32 47.81204 16.70751 4511 ft 240 kts 345°
2026-04-21 12:32 47.82784 16.70089 4342 ft 231 kts 345°
2026-04-21 12:32 47.84320 16.69446 4106 ft 233 kts 345°
2026-04-21 12:32 47.85905 16.68784 3939 ft 232 kts 345°
2026-04-21 12:33 47.87414 16.68152 3838 ft 218 kts 345°
2026-04-21 12:33 47.88834 16.67557 3754 ft 206 kts 345°
2026-04-21 12:33 47.90162 16.67001 3667 ft 196 kts 346°
2026-04-21 12:33 47.91443 16.66463 3585 ft 186 kts 346°
2026-04-21 12:34 47.92679 16.65945 3505 ft 183 kts 346°
2026-04-21 12:34 47.93901 16.65433 3360 ft 181 kts 345°
2026-04-21 12:34 47.95114 16.64924 3218 ft 180 kts 345°
2026-04-21 12:34 47.96268 16.64439 3164 ft 167 kts 345°
2026-04-21 12:35 47.97356 16.63982 3005 ft 158 kts 345°
2026-04-21 12:35 47.98400 16.63543 2817 ft 154 kts 345°
2026-04-21 12:35 47.99427 16.63111 2620 ft 151 kts 345°
2026-04-21 12:35 48.00417 16.62694 2415 ft 144 kts 344°
2026-04-21 12:36 48.01349 16.62302 2231 ft 136 kts 344°
2026-04-21 12:36 48.02255 16.61921 2047 ft 134 kts 344°
2026-04-21 12:36 48.03154 16.61542 1870 ft 134 kts 344°
2026-04-21 12:36 48.04047 16.61165 1690 ft 133 kts 344°
2026-04-21 12:37 48.04931 16.60775 1501 ft 133 kts 343°
2026-04-21 12:37 48.05828 16.60398 1249 ft 134 kts 344°
2026-04-21 12:37 48.06720 16.60029 1091 ft 132 kts 343°
2026-04-21 12:37 48.07611 16.59664 939 ft 133 kts 342°
2026-04-21 12:38 48.08492 16.59289 736 ft 131 kts 342°
2026-04-21 12:38 48.09352 16.58925 628 ft 120 kts 341°
2026-04-21 12:38 48.10036 16.58634 614 ft 79 kts 344°
2026-04-21 12:38 48.10407 16.58479 614 ft 41 kts 344°
2026-04-21 12:39 48.10655 16.58364 620 ft 34 kts 330°
2026-04-21 12:39 48.10813 16.58157 612 ft 28 kts 314°
2026-04-21 12:39 48.10942 16.57972 614 ft 22 kts 334°
2026-04-21 12:39 48.11088 16.57908 619 ft 20 kts 329°
2026-04-21 12:40 48.11150 16.57736 614 ft 19 kts 296°
2026-04-21 12:40 48.11211 16.57552 612 ft 20 kts 296°
2026-04-21 12:40 48.11274 16.57357 613 ft 21 kts 296°
2026-04-21 12:40 48.11340 16.57157 614 ft 22 kts 296°
2026-04-21 12:41 48.11402 16.56965 618 ft 16 kts 296°
2026-04-21 12:41 48.11472 16.56873 619 ft 14 kts 12°
2026-04-21 12:41 48.11571 16.56911 611 ft 16 kts 338°
2026-04-21 12:41 48.11629 16.56767 612 ft 17 kts 296°
2026-04-21 12:42 48.11679 16.56612 618 ft 14 kts 295°
2026-04-21 12:42 48.11673 16.56536 616 ft 6 kts 205°
2026-04-21 12:42 48.11640 16.56511 614 ft 3 kts 206°
2026-04-21 12:42 48.11629 16.56503 613 ft 0 kts 206°